Temp
15 15 15 15 15 15 15 15 13 13 14 14 13 13 13 12 11 10 10 10 10 9
15 15 14 14 14 14 14 14 14 13 14 13 12 12 12 11 10 10 9 9 9 8
13 13 12 12 14 14 13 12 12 12 11 11 11 10 10 10 9 9 8 8 8 7
12 12 12 11 11 11 12 12 11 11 10 10 10 9 9 9 8 8 8 7 7 6
10 10 10 10 10 10 11 11 10 9 9 9 8 8 8 8 7 6 6 6 6 6
9 10 10 10 10 10 10 9 9 9 9 8 8 7 7 6 5 6 5 5 4 4
9 9 9 9 9 9 9 9 8 8 8 7 7 6 5 4 4 4 4 4 4 3
8 8 9 9 9 8 8 8 8 8 7 6 6 5 5 3 3 3 3 3 3 2
8 8 8 8 8 8 8 7 7 6 6 5 5 3 0 0 2 2 2 1 1 1
8 8 8 8 7 7 7 6 6 6 5 4 3 1 0 -1 -0 -0 0 0 0 0
7 7 7 7 7 6 6 6 5 5 4 3 2 1 0 -1 -1 -1 -1 -1 -1 -1
7 6 6 6 5 5 5 5 5 4 3 2 1 0 -0 -0 -1 -1 -1 -1 -1 -1
6 6 6 5 5 4 4 4 4 3 2 -0 -0 -0 -0 -0 -1 -1 -1 -1 -0 -0
6 5 5 4 4 4 3 4 3 2 0 -1 -0 -1 -1 -1 -1 -1 -1 -1 0 -0
Height
1512 1514 1515 1519 1517 1520 1520 1523 1526 1527 1526 1526 1525 1524 1521 1520 1521 1520 1519 1519 1517 1516
1506 1508 1510 1512 1514 1516 1518 1518 1519 1521 1521 1520 1520 1518 1516 1516 1516 1514 1513 1512 1511 1510
1501 1503 1504 1507 1508 1510 1512 1514 1514 1515 1516 1514 1514 1514 1512 1511 1509 1508 1507 1506 1504 1505
1498 1499 1501 1504 1505 1505 1506 1510 1511 1511 1511 1509 1508 1508 1505 1504 1504 1502 1500 1500 1499 1499
1494 1496 1498 1500 1501 1502 1503 1504 1506 1506 1505 1504 1503 1501 1499 1498 1496 1497 1495 1494 1494 1493
1491 1492 1494 1496 1498 1498 1499 1500 1501 1501 1499 1498 1497 1495 1494 1492 1491 1490 1490 1489 1488 1488
1487 1489 1491 1493 1495 1495 1496 1496 1496 1495 1493 1493 1491 1490 1487 1486 1485 1484 1485 1484 1482 1483
1485 1486 1488 1490 1491 1491 1492 1492 1492 1490 1489 1488 1486 1483 1481 1481 1479 1478 1478 1478 1478 1478
1481 1483 1485 1486 1487 1488 1488 1487 1487 1485 1484 1483 1480 1478 1477 1474 1472 1472 1472 1473 1474 1474
1478 1480 1481 1482 1483 1484 1484 1484 1483 1481 1480 1478 1476 1475 1473 1470 1468 1468 1470 1471 1471 1472
1474 1476 1478 1478 1479 1479 1479 1479 1478 1476 1475 1473 1472 1471 1469 1467 1466 1467 1468 1468 1469 1469
1470 1472 1473 1474 1475 1475 1474 1474 1473 1472 1470 1469 1468 1467 1466 1465 1464 1465 1466 1466 1467 1467
1466 1468 1469 1470 1470 1470 1469 1468 1467 1466 1465 1465 1465 1464 1464 1463 1463 1463 1464 1464 1465 1466
1462 1463 1464 1465 1465 1465 1464 1463 1462 1461 1462 1461 1461 1461 1461 1461 1461 1462 1463 1463 1463 1464
Wind_Speed
28 28 27 29 26 27 24 24 23 21 21 21 21 22 23 23 23 24 25 25 24 25
25 26 27 25 23 21 19 20 26 23 26 23 23 23 23 23 24 25 25 24 24 25
23 23 24 24 25 26 20 21 23 23 22 21 22 23 23 24 24 24 24 24 23 25
23 22 22 22 22 20 26 24 21 21 21 22 23 23 23 23 23 24 23 22 22 22
21 20 20 20 19 16 18 19 20 20 20 21 21 22 23 24 24 23 22 22 21 21
21 21 21 19 18 16 16 17 18 18 19 20 21 22 22 23 22 21 21 20 20 20
19 19 18 16 15 15 16 16 17 18 19 20 20 21 21 22 21 20 20 20 19 19
17 18 17 16 15 15 15 16 18 18 19 19 20 21 22 22 22 20 20 19 17 16
18 18 17 16 16 15 16 17 18 18 19 19 20 20 18 19 18 18 17 14 13 13
20 20 19 18 17 16 16 17 18 19 19 18 17 17 17 18 14 13 11 11 12 12
22 22 21 20 18 17 17 18 18 18 18 18 16 15 15 15 12 10 11 11 12 12
21 21 21 20 18 18 19 20 19 18 17 16 14 13 14 14 12 12 13 13 13 11
19 20 22 20 20 20 21 22 20 18 16 16 13 13 14 13 13 13 13 11 10 10
19 20 20 20 20 20 22 23 20 18 16 15 15 14 14 14 12 11 12 12 10 10
Wind_Direction
233 235 238 242 243 242 238 249 258 257 261 264 269 271 273 274 273 274 276 275 275 274
236 235 238 239 239 242 241 249 253 249 257 266 272 276 277 276 276 276 276 276 275 273
237 231 227 227 235 236 246 247 248 254 260 267 274 275 276 276 276 276 276 276 275 274
240 235 235 234 229 238 270 252 259 265 270 273 273 274 277 278 276 275 275 276 275 274
236 234 233 236 240 240 246 252 260 265 270 275 279 281 280 278 276 275 275 272 271 272
240 239 237 236 238 245 254 260 265 271 279 282 283 281 279 276 273 273 271 269 269 270
239 236 234 238 245 253 260 269 277 282 285 285 285 283 281 277 275 271 267 267 269 270
235 231 233 240 249 259 268 274 278 282 284 287 291 293 281 270 267 266 267 269 268 267
237 237 240 246 254 263 271 278 282 283 284 287 293 300 297 288 268 263 266 266 263 267
243 243 245 249 255 263 270 278 281 279 281 285 290 294 297 293 275 257 254 251 256 261
245 244 246 249 255 264 273 282 282 277 279 283 292 296 295 291 269 239 240 239 245 250
250 249 251 255 262 269 276 285 287 279 277 284 287 287 288 284 258 235 235 235 238 243
256 255 255 258 264 270 277 287 286 280 279 286 280 279 276 273 246 231 233 236 235 236
259 258 256 258 263 272 277 283 278 273 273 271 270 266 262 255 241 234 237 237 240 243